This demonstration page uses our WeatherBlox Daily Observations layout. Learn more.

Left ArrowRight Arrow

36.17497, -115.13722

Hourly Observations for January 10, 2016

Temp ( °F °C ) Dew Point ( °F °C ) Humidity (%) Winds ( mph kmh ) Pressure ( in mb ) Visibility ( mi km ) Precip ( " mm )
12:53 am 00:53 Clear 40 4.4 32 undefined 73 73 NNE 3 6 30.21 1023 10 16 N/A
1:53 am 01:53 Clear 40 4.4 31 -0.6 70 70 NNW 3 6 30.22 1023 10 16 N/A
2:53 am 02:53 Clear 40 4.4 31 -0.6 70 70 NNW 3 6 30.21 1023 10 16 N/A
3:53 am 03:53 Clear 40 4.4 32 undefined 73 73 N N/A 30.20 1023 10 16 N/A
4:53 am 04:53 Clear 39 3.9 32 undefined 76 76 N N/A 30.20 1023 10 16 N/A
5:53 am 05:53 Clear 39 3.9 32 undefined 76 76 N N/A 30.22 1023 10 16 N/A
6:53 am 06:53 Sunny 39 3.9 32 undefined 76 76 NW 6 9 30.24 1024 10 16 N/A
7:53 am 07:53 Mostly Cloudy 42 5.6 30 -1.1 62 62 NNW 9 15 30.27 1025 10 16 N/A
8:53 am 08:53 Sunny 45 7.2 30 -1.1 56 56 NNW 7 11 30.28 1026 10 16 N/A
9:53 am 09:53 Cloudy 48 8.9 30 -1.1 50 50 NE 7 11 30.29 1026 10 16 N/A
10:53 am 10:53 Mostly Cloudy 47 8.3 31 -0.6 54 54 E 6 9 30.28 1025 10 16 N/A
11:53 am 11:53 Sunny 48 8.9 30 -1.1 50 50 SSE 6 9 30.24 1024 10 16 N/A
12:53 pm 12:53 Mostly Cloudy 50 10 29 -1.7 44 44 N N/A 30.23 1024 10 16 N/A
1:53 pm 13:53 Mostly Cloudy 52 11.1 29 -1.7 41 41 E 3 6 30.21 1023 10 16 N/A
2:53 pm 14:53 Partly Cloudy 53 11.7 28 -2.2 38 38 E 9 15 30.22 1023 10 16 N/A
3:53 pm 15:53 Partly Cloudy 51 10.6 30 -1.1 44 44 SE 9 15 30.23 1024 10 16 N/A
4:53 pm 16:53 Mostly Clear 50 10 30 -1.1 46 46 ESE 7 11 30.26 1025 10 16 N/A
5:53 pm 17:53 Mostly Cloudy 49 9.4 31 -0.6 50 50 SSE 3 6 30.28 1026 10 16 N/A
6:53 pm 18:53 Cloudy 49 9.4 30 -1.1 48 48 N N/A 30.29 1026 10 16 N/A
7:53 pm 19:53 Clear 48 8.9 30 -1.1 50 50 N N/A 30.31 1026 10 16 N/A
8:53 pm 20:53 Cloudy 46 7.8 31 -0.6 56 56 W 3 6 30.32 1027 10 16 N/A
9:53 pm 21:53 Partly Cloudy 46 7.8 30 -1.1 54 54 E 7 11 30.33 1027 10 16 N/A
10:53 pm 22:53 Clear 45 7.2 27 -2.8 49 49 N 5 7 30.34 1028 10 16 N/A
11:53 pm 23:53 Clear 43 6.1 27 -2.8 53 53 E 5 7 30.36 1028 10 16 N/A

Powered by AerisWeather